Flag for U.S.A. Weather for the Past 2 Weeks in Kykotsmovi Village, Hopi, Arizona, U.S.A.

Now
33 °F

Clear.


Feels Like: 28 °F
Forecast: 28 / 60 °F
Wind: 6 mph from Southwest

Location: Winslow Municipal Airport

Current Time: Feb 13, 2016 at 11:40:28 PM

Latest Report: Feb 13, 2016 at 10:56 PM


Visibility: 10 mi

Pressure: 30.14 "Hg (24.29 "Hg at 1727m altitude)

Humidity: 49%

Dew point: 16 °F

Location of Kykotsmovi Village, HopiLocation

Historic Weather in Kykotsmovi Village, Hopi — Graph

°F

Kykotsmovi Village, Hopi Temperature Yesterday

Maximum temperature yesterday: 68 °F (at 3:56 PM)
Minimum temperature yesterday: 21 °F (at 5:56 AM)
Average temperature yesterday: 41 °F

High & Low Weather Summary for the Past Weeks

 TemperatureHumidityPressure
High73 °F (Feb 13, 3:56 PM)87% (Feb 6, 6:56 AM)30.66 "Hg (Feb 6, 6:56 AM)
Low13 °F (Feb 3, 4:56 AM)10% (Feb 13, 3:56 PM)29.42 "Hg (Jan 31, 10:56 PM)
Average36 °F53%30.25 "Hg
* Reported Jan 29 9:56 PM — Feb 13 9:56 PM, Kykotsmovi Village, Hopi, Weather by CustomWeather, © 2016

Note: Actual official high and low records may vary slightly from our data, if they occured in-between our weather recording intervals... More about our weather records

Advertising

Kykotsmovi Village, Hopi Weather History for the Previous 24 Hours

 ConditionsComfort  
Time TempWeatherWind HumidityBarometerVisibility
9:56 PM
Sat, Feb 13
37 °FClear.8 mph42%30.15 "Hg10 mi
8:56 PM50 °FClear.No wind30%30.14 "Hg10 mi
7:56 PM47 °FClear.No wind29%30.15 "Hg10 mi
6:56 PM50 °FClear.No wind22%30.14 "Hg10 mi
5:56 PM64 °FSunny.9 mph14%30.09 "Hg10 mi
4:56 PM70 °FSunny.8 mph11%30.05 "Hg10 mi
3:56 PM73 °FSunny.9 mph10%30.04 "Hg10 mi
2:56 PM71 °FSunny.6 mph12%30.06 "Hg10 mi
1:56 PM69 °FSunny.6 mph15%30.09 "Hg10 mi
12:56 PM65 °FSunny.No wind17%30.13 "Hg10 mi
11:56 AM59 °FSunny.3 mph23%30.18 "Hg10 mi
10:56 AM52 °FSunny.5 mph30%30.24 "Hg10 mi
9:56 AM44 °FSunny.7 mph40%30.27 "Hg10 mi
8:56 AM36 °FSunny.6 mph54%30.30 "Hg10 mi
7:56 AM28 °FSunny.5 mph72%30.34 "Hg10 mi
6:56 AM23 °FClear.No wind78%30.32 "Hg10 mi
5:56 AM22 °FClear.3 mph75%30.26 "Hg10 mi
4:56 AM28 °FClear.6 mph69%30.22 "Hg10 mi
3:56 AM27 °FClear.5 mph69%30.22 "Hg10 mi
2:56 AM29 °FClear.3 mph66%30.23 "Hg10 mi
1:56 AM30 °FClear.3 mph66%30.24 "Hg10 mi
12:56 AM32 °FClear.5 mph64%30.25 "Hg10 mi
11:56 PM
Fri, Feb 12
34 °FClear.3 mph54%30.27 "Hg10 mi
Weather by CustomWeather, © 2016

See weather overviewHow to use our weather pages